| time (UTC) | temp C | wind direction | speed KPH | gust KPH | rain 1hr cm | rain 24hr cm | rain mn cm | humidity % | barometer mb |
| 20260504044509 | 6 | 348 | 0.0 | 1.6 | 0.00 | 0.00 | 0.00 | 65 | 1015.3 |
| 20260504043003 | 5 | 348 | 0.0 | 1.6 | 0.00 | 0.00 | 0.00 | 69 | 1015.3 |
| 20260504041529 | 5 | 348 | 0.0 | 0.0 | 0.00 | 0.00 | 0.00 | 67 | 1015.0 |
| 20260504040012 | 5 | 348 | 0.0 | 0.0 | 0.00 | 0.00 | 0.00 | 67 | 1014.7 |
| 20260504034512 | 6 | 348 | 0.0 | 1.6 | 0.00 | 0.00 | 0.00 | 67 | 1014.8 |
| 20260504033008 | 6 | 348 | 0.0 | 1.6 | 0.00 | 0.00 | 0.00 | 67 | 1014.7 |
| 20260504031508 | 6 | 348 | 0.0 | 1.6 | 0.00 | 0.00 | 0.00 | 66 | 1014.7 |
| 20260504030005 | 6 | 348 | 0.0 | 1.6 | 0.00 | 0.00 | 0.00 | 67 | 1014.6 |
| 20260504024524 | 6 | 348 | 0.0 | 1.6 | 0.00 | 0.00 | 0.00 | 65 | 1014.5 |
| 20260504023019 | 6 | 348 | 0.0 | 1.6 | 0.00 | 0.00 | 0.00 | 64 | 1014.6 |
| 20260504021515 | 6 | 348 | 0.0 | 0.0 | 0.00 | 0.00 | 0.00 | 64 | 1014.7 |
| 20260504020016 | 7 | 348 | 0.0 | 1.6 | 0.00 | 0.00 | 0.00 | 64 | 1014.6 |
| 20260504014522 | 7 | 348 | 0.0 | 1.6 | 0.00 | 0.00 | 0.00 | 62 | 1014.6 |
| 20260504013009 | 7 | 348 | 0.0 | 1.6 | 0.00 | 0.00 | 0.00 | 61 | 1014.4 |
| 20260504011506 | 8 | 348 | 0.0 | 1.6 | 0.00 | 0.00 | 0.00 | 61 | 1014.2 |
| 20260504010023 | 8 | 348 | 0.0 | 1.6 | 0.00 | 0.00 | 0.00 | 60 | 1014.1 |
| 20260504004522 | 8 | 348 | 1.6 | 3.2 | 0.00 | 0.00 | 0.00 | 57 | 1014.1 |
| 20260504003020 | 8 | 350 | 1.6 | 3.2 | 0.00 | 0.00 | 0.00 | 55 | 1013.9 |
| 20260504001516 | 9 | 342 | 1.6 | 3.2 | 0.00 | 0.00 | 0.00 | 54 | 1013.6 |
| 20260504000014 | 10 | 332 | 0.0 | 1.6 | 0.00 | 0.00 | 0.00 | 51 | 1013.4 |
| 20260503234512 | 10 | 33 | 0.0 | 4.8 | 0.00 | 0.00 | 0.00 | 47 | 1013.3 |
| 20260503233015 | 11 | 250 | 0.0 | 1.6 | 0.00 | 0.00 | 0.00 | 46 | 1013.2 |
| 20260503231525 | 12 | 250 | 0.0 | 4.8 | 0.00 | 0.00 | 0.00 | 40 | 1013.2 |
| 20260503230023 | 13 | 305 | 3.2 | 8.0 | 0.00 | 0.00 | 0.00 | 37 | 1013.2 |
| 20260503224524 | 13 | 226 | 4.8 | 9.7 | 0.00 | 0.00 | 0.00 | 35 | 1013.2 |
| 20260503223020 | 14 | 312 | 4.8 | 9.7 | 0.00 | 0.00 | 0.00 | 34 | 1013.0 |
| 20260503221526 | 15 | 343 | 3.2 | 14.5 | 0.00 | 0.00 | 0.00 | 34 | 1013.2 |
| 20260503220015 | 15 | 205 | 1.6 | 9.7 | 0.00 | 0.00 | 0.00 | 35 | 1013.2 |
| 20260503214512 | 14 | 167 | 3.2 | 14.5 | 0.00 | 0.00 | 0.00 | 34 | 1013.1 |
| 20260503213026 | 15 | 354 | 3.2 | 11.3 | 0.00 | 0.00 | 0.00 | 34 | 1013.1 |
| 20260503211526 | 15 | 246 | 6.4 | 9.7 | 0.00 | 0.00 | 0.00 | 33 | 1013.1 |
| 20260503210023 | 15 | 59 | 1.6 | 12.9 | 0.00 | 0.00 | 0.00 | 36 | 1013.1 |
| 20260503204524 | 15 | 209 | 8.0 | 19.3 | 0.00 | 0.00 | 0.00 | 32 | 1013.2 |
| 20260503203021 | 15 | 262 | 3.2 | 12.9 | 0.00 | 0.00 | 0.00 | 32 | 1013.2 |
| 20260503201519 | 15 | 211 | 3.2 | 12.9 | 0.00 | 0.00 | 0.00 | 35 | 1013.3 |
| 20260503200016 | 14 | 85 | 3.2 | 14.5 | 0.00 | 0.00 | 0.00 | 35 | 1013.6 |
| 20260503194514 | 14 | 303 | 6.4 | 25.7 | 0.00 | 0.00 | 0.00 | 33 | 1013.7 |
| 20260503193010 | 14 | 207 | 4.8 | 27.4 | 0.00 | 0.00 | 0.00 | 34 | 1013.8 |
| 20260503191510 | 15 | 163 | 4.8 | 14.5 | 0.00 | 0.00 | 0.00 | 37 | 1013.9 |
| 20260503190006 | 14 | 252 | 1.6 | 20.9 | 0.00 | 0.00 | 0.00 | 39 | 1014.0 |
| 20260503184510 | 13 | 250 | 6.4 | 16.1 | 0.00 | 0.00 | 0.00 | 36 | 1014.0 |
| 20260503183004 | 13 | 255 | 4.8 | 14.5 | 0.00 | 0.00 | 0.00 | 39 | 1014.3 |
| 20260503181518 | 13 | 30 | 3.2 | 12.9 | 0.00 | 0.00 | 0.00 | 40 | 1014.2 |
| 20260503180018 | 13 | 328 | 4.8 | 12.9 | 0.00 | 0.00 | 0.00 | 41 | 1014.4 |
| 20260503174515 | 13 | 32 | 6.4 | 14.5 | 0.00 | 0.00 | 0.00 | 37 | 1014.5 |
| 20260503173014 | 12 | 352 | 4.8 | 14.5 | 0.00 | 0.00 | 0.00 | 37 | 1014.6 |
| 20260503171506 | 12 | 54 | 6.4 | 19.3 | 0.00 | 0.00 | 0.00 | 38 | 1014.6 |
| 20260503081518 | 4 | 117 | 0.0 | 4.8 | 0.00 | 0.00 | 0.00 | 73 | 1012.7 |
| 20260503071513 | 5 | 174 | 0.0 | 4.8 | 0.00 | 0.00 | 0.00 | 73 | 1012.3 |